Regional Weather Roundup
Issued by NWS

Home | Current Version | Previous Version | Graphics & Text | Print | Product List | Glossary On
Versions: 1 2 3 4 5 6 7 8 9 10 11 12 13 14 15 16 17 18 19 20 21 22 23 24 25 26 27 28 29 30 31 32 33 34 35 36 37 38 39 40 41 42 43 44 45 46 47 48 49 50
217
ASUS43 KBIS 100110
RWRND

NORTH DAKOTA REGIONAL WEATHER ROUNDUP
NATIONAL WEATHER SERVICE BISMARCK ND
700 PM CST FRI DEC 09 2016

NOTE: "FAIR" INDICATES FEW OR NO CLOUDS BELOW 12,000 FEET WITH NO
SIGNIFICANT WEATHER AND/OR OBSTRUCTIONS TO VISIBILITY.


NDZ001>003-009>011-017-100200-
NORTHWEST NORTH DAKOTA

CITY           SKY/WX    TMP DP  RH WIND       PRES   REMARKS
WILLISTON      CLOUDY   -12 -16  82 CALM      30.50F
MINOT          CLOUDY   -10 -16  74 W8        30.51F WCI -26
MINOT AFB      PTCLDY   -18 -24  74 W6        30.51F WCI -33
$$

NDZ018>021-031>035-040>046-100200-
SOUTHWEST NORTH DAKOTA

CITY           SKY/WX    TMP DP  RH WIND       PRES   REMARKS
BISMARCK       PTCLDY    -7 -12  79 NW3       30.54S
DICKINSON      CLOUDY    -9 -16  71 CALM      30.39F
GARRISON         N/A    -12 -17  78 NW8       30.49F WCI -29
HETTINGER ARPT CLOUDY    -7 -12  79 CALM      30.41F
$$

NDZ004>008-012>016-024-026-027-054-100200-
NORTHEAST NORTH DAKOTA

CITY           SKY/WX    TMP DP  RH WIND       PRES   REMARKS
GRAND FORKS    MOCLDY    -9 -14  78 NW5       30.57R WCI -20
GRND FRKS AFB  CLOUDY    -4 -11  71 N7        30.56S WCI -18
DEVILS LAKE    CLEAR    -11 -15  82 NW12      30.52S WCI -31
$$

NDZ022-023-025-028>030-036>039-047>053-100200-
SOUTHEAST NORTH DAKOTA

CITY           SKY/WX    TMP DP  RH WIND       PRES   REMARKS
FARGO          MOCLDY     0  -7  72 NW9       30.57R WCI -15
JAMESTOWN      CLEAR    -10 -16  74 NW13      30.51F WCI -30
$$





USA.gov is the U.S. government's official web portal to all federal, state and local government web resources and services.